QPF
0.00 0.00 0.00 0.00 0.00 0.00 0.00 0.00 0.00 0.00 0.00 0.00 0.00 0.00 0.00 0.00 0.00 0.00 0.00 0.00 0.00 0.00 0.00 0.00 0.00 0.00 0.00 0.00 0.00 0.00 0.00 0.00 0.00 0.00 0.00 0.00 0.00 0.00 0.00 0.00 0.00 0.00 0.00 0.00
0.00 0.00 0.00 0.00 0.00 0.00 0.00 0.00 0.00 0.00 0.00 0.00 0.00 0.00 0.00 0.00 0.00 0.00 0.00 0.00 0.00 0.00 0.00 0.00 0.00 0.00 0.00 0.00 0.00 0.00 0.00 0.00 0.00 0.00 0.00 0.00 0.00 0.00 0.00 0.00 0.00 0.00 0.00 0.00
0.00 0.00 0.00 0.00 0.00 0.00 0.00 0.00 0.00 0.00 0.00 0.00 0.00 0.00 0.00 0.00 0.00 0.00 0.00 0.00 0.00 0.00 0.00 0.00 0.00 0.00 0.00 0.00 0.00 0.00 0.00 0.00 0.00 0.00 0.00 0.00 0.00 0.00 0.00 0.00 0.00 0.00 0.00 0.00
0.00 0.00 0.00 0.00 0.00 0.00 0.00 0.00 0.00 0.00 0.00 0.00 0.00 0.00 0.00 0.00 0.00 0.00 0.00 0.00 0.00 0.00 0.00 0.00 0.00 0.00 0.00 0.00 0.00 0.00 0.00 0.00 0.00 0.00 0.00 0.00 0.00 0.00 0.00 0.00 0.00 0.00 0.00 0.00
0.00 0.00 0.00 0.00 0.00 0.00 0.00 0.00 0.00 0.00 0.00 0.00 0.00 0.00 0.00 0.00 0.00 0.00 0.00 0.00 0.00 0.00 0.00 0.00 0.00 0.00 0.00 0.00 0.00 0.00 0.00 0.00 0.00 0.00 0.00 0.00 0.00 0.00 0.00 0.00 0.00 0.00 0.00 0.00
0.00 0.00 0.00 0.00 0.00 0.00 0.00 0.00 0.00 0.00 0.00 0.00 0.00 0.00 0.00 0.00 0.00 0.00 0.00 0.00 0.00 0.00 0.00 0.00 0.00 0.00 0.00 0.00 0.00 0.00 0.00 0.00 0.00 0.00 0.00 0.00 0.00 0.00 0.00 0.00 0.00 0.00 0.00 0.00
0.00 0.00 0.00 0.00 0.00 0.00 0.00 0.00 0.00 0.00 0.00 0.00 0.00 0.00 0.00 0.00 0.00 0.00 0.00 0.00 0.00 0.00 0.00 0.00 0.00 0.00 0.00 0.00 0.00 0.00 0.00 0.00 0.00 0.00 0.00 0.00 0.00 0.00 0.00 0.00 0.00 0.00 0.00 0.00
0.00 0.00 0.00 0.00 0.00 0.00 0.00 0.00 0.00 0.00 0.00 0.00 0.00 0.00 0.00 0.00 0.00 0.00 0.00 0.00 0.00 0.00 0.00 0.00 0.00 0.00 0.00 0.00 0.00 0.00 0.00 0.00 0.00 0.00 0.00 0.00 0.00 0.00 0.00 0.00 0.00 0.00 0.00 0.00
0.00 0.00 0.00 0.00 0.00 0.00 0.00 0.00 0.00 0.00 0.00 0.00 0.00 0.00 0.00 0.00 0.00 0.00 0.00 0.00 0.00 0.00 0.00 0.00 0.00 0.00 0.00 0.00 0.00 0.00 0.00 0.00 0.00 0.00 0.00 0.00 0.00 0.00 0.00 0.00 0.00 0.00 0.00 0.00
0.00 0.00 0.00 0.00 0.00 0.00 0.00 0.00 0.00 0.00 0.00 0.00 0.00 0.00 0.00 0.00 0.00 0.00 0.00 0.00 0.00 0.00 0.00 0.00 0.00 0.00 0.00 0.00 0.00 0.00 0.00 0.00 0.00 0.00 0.00 0.00 0.00 0.00 0.00 0.00 0.00 0.00 0.00 0.00
0.00 0.00 0.00 0.00 0.00 0.00 0.00 0.00 0.00 0.00 0.00 0.00 0.00 0.00 0.00 0.00 0.00 0.00 0.00 0.00 0.00 0.00 0.00 0.00 0.00 0.00 0.00 0.00 0.00 0.00 0.00 0.00 0.00 0.00 0.00 0.00 0.00 0.00 0.00 0.00 0.00 0.00 0.00 0.00
0.00 0.00 0.00 0.00 0.00 0.00 0.00 0.00 0.00 0.00 0.00 0.00 0.00 0.00 0.00 0.00 0.00 0.00 0.00 0.00 0.00 0.00 0.00 0.00 0.00 0.00 0.00 0.00 0.00 0.00 0.00 0.00 0.00 0.00 0.00 0.00 0.00 0.00 0.00 0.00 0.00 0.00 0.00 0.00
0.00 0.00 0.00 0.00 0.00 0.00 0.00 0.00 0.00 0.00 0.00 0.00 0.00 0.00 0.00 0.00 0.00 0.00 0.00 0.00 0.00 0.00 0.00 0.00 0.00 0.00 0.00 0.00 0.00 0.00 0.00 0.00 0.00 0.00 0.00 0.00 0.00 0.00 0.00 0.00 0.00 0.00 0.00 0.00
0.00 0.00 0.00 0.00 0.00 0.00 0.00 0.00 0.00 0.00 0.00 0.00 0.00 0.00 0.00 0.00 0.00 0.00 0.00 0.00 0.00 0.00 0.00 0.00 0.00 0.00 0.00 0.00 0.00 0.00 0.00 0.00 0.00 0.00 0.00 0.00 0.00 0.00 0.00 0.00 0.00 0.00 0.00 0.00
0.00 0.00 0.00 0.00 0.00 0.00 0.00 0.00 0.00 0.00 0.00 0.00 0.00 0.00 0.00 0.00 0.00 0.00 0.00 0.00 0.00 0.00 0.00 0.00 0.00 0.00 0.00 0.00 0.00 0.00 0.00 0.00 0.00 0.00 0.00 0.00 0.00 0.00 0.00 0.00 0.00 0.00 0.00 0.00
0.00 0.00 0.00 0.00 0.00 0.00 0.00 0.00 0.00 0.00 0.00 0.00 0.00 0.00 0.00 0.00 0.00 0.00 0.00 0.00 0.00 0.00 0.00 0.00 0.00 0.00 0.00 0.00 0.00 0.00 0.00 0.00 0.00 0.00 0.00 0.00 0.00 0.00 0.00 0.00 0.00 0.00 0.00 0.00
0.00 0.00 0.00 0.00 0.00 0.00 0.00 0.00 0.00 0.00 0.00 0.00 0.00 0.00 0.00 0.00 0.00 0.00 0.00 0.00 0.00 0.00 0.00 0.00 0.00 0.00 0.00 0.00 0.00 0.00 0.00 0.00 0.00 0.00 0.00 0.00 0.00 0.00 0.00 0.00 0.00 0.00 0.00 0.00
0.01 0.01 0.01 0.01 0.00 0.00 0.00 0.00 0.00 0.00 0.00 0.00 0.00 0.00 0.00 0.00 0.00 0.00 0.00 0.00 0.00 0.00 0.00 0.00 0.00 0.00 0.00 0.00 0.00 0.00 0.00 0.00 0.00 0.00 0.00 0.00 0.00 0.00 0.00 0.00 0.00 0.00 0.00 0.00
0.03 0.03 0.02 0.01 0.00 0.00 0.00 0.00 0.00 0.00 0.00 0.00 0.00 0.00 0.00 0.00 0.00 0.00 0.00 0.00 0.00 0.00 0.00 0.00 0.00 0.00 0.00 0.00 0.00 0.00 0.00 0.00 0.00 0.00 0.00 0.00 0.00 0.00 0.00 0.00 0.00 0.00 0.00 0.00
0.03 0.01 0.00 0.00 0.00 0.00 0.00 0.00 0.00 0.00 0.00 0.00 0.00 0.00 0.00 0.00 0.00 0.00 0.00 0.00 0.00 0.00 0.00 0.00 0.00 0.00 0.00 0.00 0.00 0.00 0.00 0.00 0.00 0.00 0.00 0.00 0.00 0.00 0.00 0.00 0.00 0.00 0.00 0.00
0.00 0.00 0.00 0.00 0.00 0.00 0.00 0.00 0.00 0.00 0.00 0.00 0.00 0.00 0.00 0.00 0.00 0.00 0.00 0.00 0.00 0.00 0.00 0.00 0.00 0.00 0.00 0.00 0.00 0.00 0.00 0.00 0.00 0.00 0.00 0.00 0.00 0.00 0.00 0.00 0.00 0.00 0.00 0.00
0.00 0.00 0.00 0.00 0.00 0.00 0.00 0.00 0.00 0.00 0.00 0.00 0.00 0.00 0.00 0.00 0.00 0.00 0.00 0.00 0.00 0.00 0.00 0.00 0.00 0.00 0.00 0.00 0.00 0.00 0.00 0.00 0.00 0.00 0.00 0.00 0.00 0.00 0.00 0.00 0.00 0.00 0.00 0.00
0.00 0.00 0.00 0.00 0.00 0.00 0.00 0.00 0.00 0.00 0.00 0.00 0.00 0.00 0.00 0.00 0.00 0.00 0.00 0.00 0.00 0.00 0.00 0.00 0.00 0.00 0.00 0.00 0.00 0.00 0.00 0.00 0.00 0.00 0.00 0.00 0.00 0.00 0.00 0.00 0.00 0.00 0.00 0.00
0.00 0.00 0.00 0.00 0.00 0.00 0.00 0.00 0.00 0.00 0.00 0.00 0.00 0.00 0.00 0.00 0.00 0.00 0.00 0.00 0.00 0.00 0.00 0.00 0.00 0.00 0.00 0.00 0.00 0.00 0.00 0.00 0.00 0.00 0.00 0.00 0.00 0.00 0.00 0.00 0.00 0.00 0.00 0.00
0.00 0.00 0.00 0.00 0.00 0.00 0.00 0.00 0.00 0.00 0.00 0.00 0.00 0.00 0.00 0.00 0.00 0.00 0.00 0.00 0.00 0.00 0.00 0.00 0.00 0.00 0.00 0.00 0.00 0.00 0.00 0.00 0.00 0.00 0.00 0.00 0.00 0.00 0.00 0.00 0.00 0.00 0.00 0.00
0.00 0.00 0.00 0.00 0.00 0.00 0.00 0.00 0.00 0.00 0.00 0.00 0.00 0.00 0.00 0.00 0.00 0.00 0.00 0.00 0.00 0.00 0.00 0.00 0.00 0.00 0.00 0.00 0.00 0.00 0.00 0.00 0.00 0.00 0.00 0.00 0.00 0.00 0.00 0.00 0.00 0.00 0.00 0.00
0.00 0.00 0.00 0.00 0.00 0.00 0.00 0.00 0.00 0.00 0.00 0.00 0.00 0.00 0.00 0.00 0.00 0.00 0.00 0.00 0.00 0.00 0.00 0.00 0.00 0.00 0.00 0.00 0.00 0.00 0.00 0.00 0.00 0.00 0.00 0.00 0.00 0.00 0.00 0.00 0.00 0.00 0.00 0.00
MSLP
1018.46 1017.45 1016.45 1015.51 1014.51 1013.32 1013.12 1014.68 1015.93 1015.22 1014.60 1017.11 1020.96 1022.86 1022.82 1022.24 1021.83 1021.49 1021.20 1021.32 1021.71 1021.97 1021.76 1021.30 1020.90 1020.68 1020.29 1019.31 1018.37 1017.16 1016.47 1015.41 1014.46 1013.26 1012.28 1011.96 1011.75 1012.03 1012.60 1013.69 1015.25 1016.00 1016.31 1016.66
1019.15 1018.14 1017.08 1016.14 1015.23 1014.60 1015.20 1017.10 1017.83 1016.10 1015.84 1020.92 1023.54 1023.66 1023.64 1023.23 1022.51 1022.41 1022.00 1022.07 1022.16 1022.21 1022.45 1022.39 1021.79 1020.87 1019.97 1019.17 1018.39 1018.10 1017.42 1016.31 1015.69 1014.67 1013.39 1012.69 1012.52 1012.57 1012.94 1013.56 1014.33 1015.60 1016.69 1017.21
1019.96 1018.98 1017.84 1016.70 1015.90 1015.14 1015.97 1018.81 1020.15 1020.12 1021.03 1023.77 1024.66 1025.14 1024.87 1024.08 1023.30 1023.09 1023.02 1022.83 1022.42 1022.28 1022.29 1021.95 1022.05 1021.48 1020.57 1020.21 1019.68 1018.79 1017.99 1017.15 1016.48 1015.20 1014.18 1013.68 1013.42 1013.19 1013.25 1013.71 1014.83 1015.35 1016.02 1017.25
1020.60 1019.79 1018.85 1017.56 1016.43 1015.71 1016.39 1020.36 1024.14 1024.70 1025.13 1025.91 1026.59 1026.27 1026.19 1025.20 1024.52 1023.79 1023.37 1023.37 1023.85 1023.80 1023.51 1022.94 1022.74 1022.27 1021.67 1021.16 1021.13 1020.23 1019.52 1018.69 1017.56 1016.13 1015.12 1014.56 1014.10 1013.86 1013.92 1014.26 1014.64 1015.30 1015.91 1017.18
1021.43 1020.73 1019.88 1018.79 1017.56 1016.74 1018.57 1021.84 1023.70 1025.44 1026.31 1026.84 1027.06 1027.06 1027.55 1026.33 1025.35 1024.92 1024.22 1024.15 1024.36 1024.26 1024.44 1024.32 1023.85 1023.50 1023.21 1023.22 1022.26 1021.83 1021.26 1020.43 1019.01 1017.51 1016.35 1015.37 1015.08 1014.92 1014.83 1015.03 1015.16 1015.79 1016.74 1017.92
1021.89 1021.46 1020.91 1020.20 1019.26 1018.23 1020.78 1022.65 1023.04 1023.80 1026.59 1027.43 1027.72 1027.82 1027.13 1026.38 1025.67 1025.12 1024.58 1024.61 1024.56 1024.42 1024.32 1024.33 1024.15 1024.10 1024.06 1023.86 1023.71 1022.70 1021.94 1021.12 1020.22 1018.89 1017.68 1017.13 1016.69 1015.82 1015.84 1015.86 1016.10 1016.60 1018.03 1018.18
1022.13 1021.83 1021.45 1021.05 1020.64 1020.52 1021.43 1022.80 1023.29 1023.75 1026.23 1027.13 1027.70 1027.83 1027.34 1026.78 1026.01 1025.63 1025.08 1024.82 1024.87 1024.65 1024.29 1024.05 1024.11 1024.20 1024.05 1023.91 1023.41 1023.18 1022.76 1022.13 1021.31 1020.31 1019.10 1018.36 1017.34 1017.69 1017.87 1017.90 1017.59 1018.08 1018.58 1019.54
1022.25 1022.01 1021.83 1021.55 1021.27 1021.34 1021.96 1022.80 1022.97 1023.80 1025.20 1026.13 1026.79 1027.37 1027.50 1027.02 1026.63 1026.24 1025.73 1025.10 1024.99 1024.92 1024.90 1025.20 1025.23 1025.10 1024.71 1024.25 1023.59 1023.54 1023.46 1023.12 1022.81 1021.86 1020.61 1018.78 1018.29 1019.04 1019.37 1019.33 1018.52 1018.77 1019.72 1020.89
1022.29 1022.20 1022.02 1021.85 1021.65 1021.65 1022.31 1022.90 1022.94 1023.31 1024.81 1025.20 1025.06 1025.99 1026.91 1027.42 1027.22 1027.20 1026.01 1025.25 1025.03 1025.13 1025.80 1026.70 1027.73 1026.89 1026.53 1025.92 1024.63 1024.03 1024.09 1024.03 1024.30 1023.42 1022.38 1020.83 1019.80 1019.79 1019.90 1020.37 1020.13 1019.82 1020.65 1021.65
1022.13 1022.11 1021.96 1021.78 1021.74 1021.82 1022.19 1022.99 1023.04 1023.09 1024.28 1024.36 1024.44 1024.99 1025.52 1026.31 1027.08 1027.39 1026.94 1026.50 1025.94 1025.74 1027.20 1028.32 1028.75 1028.12 1027.48 1027.20 1026.31 1025.64 1025.65 1025.74 1025.57 1024.64 1023.38 1021.21 1019.59 1020.00 1020.65 1020.97 1020.14 1020.37 1021.16 1022.04
1021.67 1021.86 1021.83 1021.75 1021.66 1021.89 1022.16 1022.86 1023.03 1023.10 1023.52 1023.69 1023.94 1024.07 1024.59 1025.48 1025.77 1026.47 1026.70 1027.33 1027.11 1027.26 1027.94 1028.99 1028.92 1029.00 1028.31 1028.00 1026.94 1026.33 1025.99 1026.30 1025.89 1025.01 1023.94 1021.42 1019.71 1021.62 1021.75 1020.16 1020.03 1020.26 1020.66 1021.69
1021.17 1021.24 1021.51 1021.56 1021.46 1021.67 1021.99 1022.66 1022.99 1022.92 1023.26 1023.10 1023.18 1023.13 1023.06 1023.22 1023.58 1024.37 1026.27 1026.48 1026.59 1026.53 1027.76 1028.98 1028.94 1028.98 1029.16 1028.85 1028.12 1027.26 1026.88 1025.22 1024.78 1023.66 1021.55 1020.21 1020.26 1020.51 1020.74 1020.95 1021.52 1022.03 1022.87 1023.37
1020.50 1020.58 1020.82 1021.15 1021.28 1021.59 1021.84 1022.59 1023.00 1023.08 1023.42 1023.47 1023.31 1022.99 1022.95 1023.07 1023.22 1023.30 1024.75 1025.99 1025.94 1026.63 1026.25 1027.45 1028.33 1028.65 1028.09 1028.53 1027.99 1027.34 1026.09 1025.78 1025.25 1023.96 1021.39 1021.02 1021.08 1021.62 1021.83 1021.89 1022.04 1022.27 1022.44 1023.04
1019.64 1019.99 1020.13 1020.44 1020.79 1021.34 1021.65 1022.48 1022.75 1023.12 1023.40 1023.76 1023.12 1022.82 1022.99 1023.04 1023.32 1023.68 1023.90 1024.59 1025.61 1026.06 1026.98 1027.56 1028.25 1028.38 1027.42 1027.63 1027.70 1027.47 1026.11 1026.19 1025.11 1023.68 1022.02 1022.08 1021.52 1021.63 1021.53 1022.13 1022.59 1022.79 1023.31 1023.81
1018.74 1019.23 1019.57 1019.91 1020.24 1021.01 1021.74 1022.31 1022.26 1022.59 1022.94 1023.37 1023.15 1023.23 1023.39 1023.38 1023.55 1023.86 1024.09 1024.50 1025.35 1026.40 1027.49 1028.56 1028.22 1027.58 1027.74 1027.95 1027.72 1026.15 1024.75 1023.66 1023.98 1022.85 1021.66 1022.02 1022.02 1021.73 1021.58 1022.50 1022.86 1023.46 1024.05 1024.32
1017.87 1018.42 1018.88 1019.35 1019.78 1020.85 1021.74 1022.23 1022.35 1022.26 1022.33 1022.85 1023.50 1023.72 1023.72 1023.67 1023.66 1023.99 1024.46 1024.86 1025.36 1025.83 1026.50 1027.12 1027.34 1027.02 1027.06 1027.64 1026.87 1022.29 1022.16 1022.13 1022.49 1022.67 1022.77 1022.61 1022.65 1022.66 1022.37 1022.59 1023.36 1023.90 1024.34 1025.10
1016.78 1017.62 1018.34 1018.85 1019.50 1020.34 1021.10 1021.32 1021.45 1021.97 1022.28 1022.86 1023.67 1023.30 1023.80 1023.68 1024.02 1024.35 1024.38 1024.59 1025.25 1025.82 1026.06 1026.36 1026.46 1026.97 1026.95 1026.88 1025.47 1021.55 1021.69 1022.14 1022.83 1022.98 1023.48 1023.94 1023.83 1023.49 1023.40 1023.29 1023.80 1024.33 1025.33 1025.70
1015.88 1017.02 1017.94 1018.55 1019.42 1020.34 1021.18 1021.36 1021.24 1021.96 1022.57 1023.33 1023.77 1023.61 1023.74 1023.77 1024.15 1024.48 1024.67 1024.85 1024.89 1025.01 1025.38 1025.64 1025.81 1026.89 1027.17 1025.85 1021.41 1021.63 1021.80 1022.58 1022.86 1022.86 1023.34 1023.80 1024.19 1023.97 1024.39 1024.17 1024.68 1025.43 1026.07 1026.74
1014.90 1016.31 1017.56 1018.90 1019.50 1020.27 1020.84 1021.22 1021.79 1022.09 1022.75 1023.14 1023.49 1023.45 1023.56 1023.87 1024.25 1024.37 1024.69 1024.74 1024.89 1024.66 1024.43 1024.34 1024.74 1025.16 1024.36 1020.84 1021.10 1021.60 1021.47 1021.95 1022.26 1023.06 1023.57 1023.92 1024.11 1024.24 1024.43 1024.84 1025.23 1025.34 1026.10 1026.94
1014.37 1016.20 1017.79 1018.67 1019.38 1020.21 1020.93 1022.13 1022.47 1022.65 1022.68 1022.93 1022.52 1022.02 1023.06 1023.39 1024.25 1024.56 1024.78 1024.74 1024.26 1024.21 1023.58 1023.79 1023.82 1022.20 1019.37 1019.40 1019.97 1020.68 1021.10 1021.45 1022.08 1023.11 1023.74 1023.76 1023.82 1023.89 1024.05 1023.97 1024.32 1024.56 1025.17 1026.14
1014.08 1015.59 1017.75 1019.50 1019.66 1020.48 1021.16 1022.14 1022.63 1022.86 1022.90 1021.75 1021.12 1021.36 1022.35 1023.19 1023.32 1023.78 1023.93 1024.01 1024.02 1023.95 1023.22 1023.23 1022.94 1021.12 1019.03 1019.28 1019.72 1020.27 1020.89 1021.21 1020.94 1020.93 1021.06 1021.02 1021.37 1022.11 1022.82 1023.56 1023.93 1024.38 1024.81 1025.42
1012.08 1014.50 1017.10 1019.30 1019.70 1019.98 1020.79 1021.41 1021.93 1021.77 1020.72 1020.60 1020.88 1021.33 1021.88 1022.92 1022.77 1023.05 1023.87 1023.59 1023.72 1023.17 1023.09 1023.24 1021.95 1018.80 1018.71 1019.26 1019.67 1020.26 1020.91 1021.21 1021.01 1021.03 1021.35 1021.48 1021.56 1021.64 1022.04 1022.46 1023.15 1023.57 1024.03 1024.69
1012.19 1013.89 1015.95 1017.11 1018.57 1018.65 1019.00 1019.28 1019.21 1019.21 1018.13 1019.20 1020.21 1021.27 1021.72 1022.82 1022.67 1022.81 1023.12 1023.21 1022.98 1022.82 1023.14 1021.69 1018.87 1018.26 1018.80 1019.39 1019.81 1020.14 1020.62 1021.00 1021.11 1021.14 1021.39 1021.52 1021.80 1021.89 1022.09 1022.27 1022.53 1023.06 1023.86 1024.42
1010.06 1011.57 1013.87 1014.55 1015.26 1014.74 1014.39 1014.11 1014.36 1015.18 1015.90 1017.36 1018.50 1020.11 1020.84 1021.46 1022.07 1022.11 1022.38 1022.44 1022.54 1022.68 1021.97 1019.32 1017.96 1018.42 1019.04 1019.40 1019.80 1020.21 1020.68 1020.94 1021.06 1021.20 1021.45 1021.68 1022.02 1022.19 1022.28 1022.32 1022.49 1022.83 1023.44 1024.03
1008.06 1009.32 1009.95 1011.03 1010.54 1011.96 1011.99 1012.34 1013.77 1014.89 1015.39 1016.31 1018.00 1019.14 1019.75 1020.71 1020.99 1021.04 1021.78 1022.24 1021.34 1020.46 1018.58 1017.57 1017.86 1018.27 1018.78 1019.21 1019.54 1019.78 1020.13 1020.47 1020.78 1021.20 1021.60 1021.82 1022.22 1022.41 1022.55 1022.56 1022.43 1022.62 1023.08 1023.56
1006.43 1007.03 1007.77 1008.82 1010.29 1011.44 1011.97 1012.54 1013.58 1014.12 1015.00 1015.74 1016.49 1017.78 1018.59 1018.94 1019.24 1020.02 1019.62 1019.74 1018.74 1017.35 1017.31 1017.68 1018.31 1018.77 1019.05 1019.37 1019.46 1019.39 1019.57 1019.98 1020.47 1020.85 1021.23 1021.55 1022.05 1022.29 1022.46 1022.52 1022.48 1022.56 1022.84 1023.26
1005.01 1006.35 1006.59 1007.18 1007.99 1009.06 1010.42 1011.39 1012.58 1013.39 1014.03 1014.69 1015.51 1016.41 1016.86 1017.70 1018.40 1018.53 1018.03 1017.66 1017.23 1017.34 1017.76 1018.18 1018.68 1019.18 1019.57 1019.70 1019.56 1019.37 1019.39 1019.71 1020.08 1020.52 1020.91 1021.27 1021.62 1022.03 1022.38 1022.41 1022.09 1022.08 1022.24 1022.47
Thickness
5582 5584 5586 5587 5589 5591 5586 5564 5540 5546 5543 5505 5455 5433 5451 5452 5445 5441 5447 5447 5445 5439 5440 5438 5452 5460 5460 5468 5472 5491 5495 5503 5516 5537 5547 5550 5557 5558 5554 5549 5550 5532 5550 5567
5576 5578 5580 5582 5584 5583 5571 5536 5534 5545 5540 5475 5433 5465 5457 5452 5447 5442 5443 5444 5445 5447 5445 5450 5448 5461 5474 5476 5479 5481 5486 5506 5499 5515 5532 5544 5551 5553 5552 5544 5542 5541 5538 5566
5569 5570 5572 5575 5577 5578 5566 5531 5514 5517 5503 5469 5459 5453 5450 5455 5452 5447 5443 5441 5444 5449 5449 5452 5453 5458 5467 5465 5469 5483 5486 5503 5507 5532 5538 5531 5540 5544 5548 5547 5540 5539 5548 5567
5563 5563 5564 5567 5571 5573 5562 5519 5479 5469 5472 5460 5426 5435 5419 5430 5432 5443 5446 5445 5431 5425 5428 5449 5444 5446 5450 5462 5454 5458 5471 5480 5493 5508 5513 5525 5535 5540 5539 5542 5545 5544 5558 5551
5551 5554 5555 5559 5561 5563 5542 5513 5492 5467 5452 5425 5438 5442 5415 5429 5433 5432 5431 5422 5425 5411 5404 5413 5420 5424 5433 5425 5437 5436 5439 5458 5476 5504 5504 5510 5529 5526 5530 5534 5541 5543 5538 5538
5540 5542 5543 5544 5546 5549 5523 5507 5501 5490 5459 5427 5441 5430 5436 5442 5445 5444 5447 5435 5419 5422 5430 5425 5422 5419 5415 5420 5421 5430 5422 5432 5453 5461 5492 5490 5502 5516 5516 5519 5500 5527 5527 5534
5530 5529 5530 5529 5530 5528 5516 5501 5495 5487 5460 5452 5436 5433 5444 5445 5447 5421 5443 5437 5421 5433 5424 5424 5422 5416 5416 5414 5420 5421 5436 5430 5451 5473 5479 5501 5495 5457 5462 5473 5478 5470 5479 5473
5522 5520 5519 5518 5516 5514 5507 5495 5494 5475 5456 5457 5452 5432 5428 5435 5430 5432 5435 5438 5428 5421 5425 5408 5403 5406 5417 5415 5430 5417 5413 5398 5411 5433 5443 5470 5473 5453 5456 5466 5503 5462 5462 5449
5511 5508 5507 5509 5508 5505 5499 5489 5485 5480 5462 5462 5462 5442 5422 5419 5397 5405 5423 5431 5424 5425 5417 5384 5378 5407 5387 5405 5408 5417 5416 5405 5390 5386 5415 5447 5454 5435 5437 5438 5477 5447 5449 5439
5500 5498 5497 5497 5498 5495 5493 5483 5479 5475 5451 5458 5452 5441 5438 5416 5398 5396 5390 5402 5411 5416 5375 5354 5371 5386 5379 5395 5399 5390 5376 5350 5391 5355 5386 5421 5432 5425 5424 5458 5492 5434 5433 5429
5491 5487 5485 5484 5483 5483 5480 5474 5470 5468 5451 5454 5450 5446 5428 5422 5408 5412 5407 5400 5392 5379 5381 5370 5368 5360 5370 5365 5355 5374 5396 5378 5386 5374 5362 5434 5417 5406 5431 5438 5425 5430 5425 5419
5481 5479 5474 5471 5471 5468 5467 5463 5458 5457 5453 5450 5445 5443 5440 5435 5427 5410 5381 5400 5378 5393 5371 5351 5357 5373 5355 5333 5381 5340 5374 5393 5396 5408 5427 5414 5410 5406 5395 5392 5395 5399 5393 5391
5471 5469 5465 5459 5456 5453 5451 5447 5444 5442 5438 5436 5430 5430 5428 5423 5420 5418 5402 5383 5385 5378 5378 5365 5353 5355 5363 5358 5361 5346 5363 5323 5363 5385 5400 5399 5403 5383 5387 5387 5388 5383 5385 5382
5460 5456 5454 5449 5444 5438 5436 5431 5430 5424 5422 5421 5428 5417 5415 5411 5406 5401 5398 5391 5379 5371 5355 5341 5342 5351 5358 5355 5353 5351 5362 5347 5358 5366 5386 5372 5386 5379 5387 5382 5376 5374 5369 5366
5448 5443 5439 5436 5432 5424 5420 5416 5418 5415 5413 5404 5408 5400 5396 5394 5392 5387 5383 5379 5370 5355 5350 5322 5341 5332 5341 5322 5331 5339 5353 5374 5383 5404 5400 5384 5381 5370 5378 5370 5368 5363 5356 5354
5437 5431 5427 5423 5420 5412 5404 5401 5404 5402 5400 5392 5389 5388 5379 5380 5377 5373 5368 5364 5353 5347 5344 5338 5317 5325 5331 5325 5335 5380 5365 5355 5359 5380 5354 5354 5352 5349 5357 5363 5355 5349 5346 5341
5432 5424 5418 5414 5410 5404 5397 5399 5397 5390 5387 5377 5380 5382 5371 5367 5364 5359 5358 5352 5345 5337 5335 5333 5330 5316 5312 5304 5334 5378 5355 5356 5342 5330 5337 5354 5337 5348 5337 5343 5336 5339 5318 5317
5419 5410 5403 5401 5395 5389 5382 5380 5380 5376 5370 5361 5355 5367 5361 5356 5349 5345 5340 5338 5333 5335 5323 5324 5326 5303 5293 5321 5369 5348 5334 5328 5330 5337 5320 5329 5315 5319 5314 5315 5314 5306 5304 5294
5409 5398 5393 5384 5380 5376 5372 5366 5362 5363 5357 5354 5345 5360 5366 5342 5336 5336 5330 5326 5315 5319 5321 5323 5318 5310 5323 5364 5341 5336 5341 5350 5345 5314 5306 5306 5314 5315 5305 5301 5294 5301 5294 5278
5392 5379 5369 5369 5367 5361 5354 5342 5339 5336 5335 5335 5351 5351 5338 5333 5321 5315 5319 5310 5314 5295 5316 5308 5304 5331 5365 5356 5334 5329 5329 5331 5320 5314 5311 5301 5302 5307 5299 5300 5297 5296 5289 5274
5372 5365 5351 5343 5343 5336 5329 5319 5328 5316 5316 5342 5349 5341 5322 5318 5314 5317 5313 5302 5296 5287 5305 5303 5298 5329 5348 5328 5326 5317 5307 5315 5320 5323 5319 5325 5320 5311 5301 5287 5281 5276 5272 5265
5378 5359 5337 5321 5319 5318 5321 5316 5307 5311 5338 5335 5324 5319 5311 5297 5302 5304 5290 5291 5287 5309 5281 5273 5295 5341 5328 5317 5318 5311 5300 5299 5304 5303 5301 5293 5295 5295 5292 5284 5273 5265 5260 5251
5355 5338 5321 5323 5309 5318 5320 5315 5318 5327 5336 5317 5310 5301 5295 5279 5283 5274 5281 5284 5290 5275 5262 5289 5328 5321 5308 5302 5298 5298 5291 5286 5287 5286 5280 5274 5271 5264 5268 5264 5251 5249 5239 5232
5348 5337 5315 5332 5319 5325 5344 5357 5363 5350 5335 5321 5314 5292 5292 5278 5270 5271 5283 5271 5262 5255 5235 5300 5313 5299 5292 5289 5284 5281 5283 5276 5275 5274 5270 5266 5260 5254 5244 5244 5239 5234 5227 5218
5342 5335 5329 5335 5353 5325 5342 5343 5336 5325 5322 5313 5299 5290 5287 5273 5272 5272 5257 5249 5261 5259 5296 5306 5291 5285 5278 5280 5278 5276 5273 5268 5262 5256 5252 5248 5239 5232 5230 5225 5222 5217 5212 5206
5332 5329 5333 5340 5346 5324 5329 5321 5312 5311 5310 5304 5301 5284 5281 5286 5279 5263 5268 5278 5273 5292 5282 5278 5272 5268 5265 5263 5264 5265 5262 5255 5249 5242 5236 5233 5225 5220 5217 5206 5202 5198 5196 5190
5326 5327 5331 5339 5345 5354 5332 5322 5310 5309 5311 5308 5291 5287 5289 5264 5267 5270 5272 5273 5279 5274 5269 5265 5259 5254 5249 5246 5248 5251 5249 5244 5238 5227 5220 5216 5207 5197 5193 5191 5191 5187 5182 5177